ECMWFFLT1_925_temp_132.txt.gz
Temp
27 28 28 28 27 27 27 27 27 27 27 27 27 27 27 26 26 25 25 25 25 25 25 25 25 25 25 25 25 26 26 26 26 26 26 26 26 26 26 25 25 25 25 25 25 25 25 25 25 25 25 25 25 25 25 25 25 25 25 25 25 25 26
27 28 28 28 27 27 27 27 28 28 27 27 27 27 27 26 26 25 25 25 25 25 25 25 25 25 25 25 25 25 25 26 26 26 26 26 26 26 26 25 25 25 25 25 25 25 25 25 25 25 26 26 25 26 25 25 25 25 25 25 25 25 25
27 28 28 28 28 27 27 26 27 28 28 27 27 27 27 26 26 26 25 25 25 25 25 25 25 25 25 25 25 25 25 25 26 26 26 26 26 26 26 25 25 25 25 26 26 26 26 26 26 26 26 26 26 26 26 25 25 25 25 25 25 25 25
27 27 27 27 27 27 25 24 26 27 28 28 28 28 27 26 26 26 25 25 25 25 25 25 25 25 25 25 25 25 25 25 25 26 26 26 26 26 25 25 25 25 26 26 26 26 26 26 26 26 26 26 26 26 26 25 25 25 25 25 25 25 25
27 26 26 27 27 26 24 24 25 27 27 28 28 28 27 26 26 26 25 25 25 25 25 25 25 25 25 25 25 25 25 25 25 25 25 26 26 25 25 25 25 26 26 26 26 26 26 26 26 26 26 26 26 26 26 25 25 25 25 25 25 25 25
27 26 25 27 27 26 26 25 25 26 27 27 28 28 27 26 26 26 25 25 25 25 25 25 25 25 25 25 25 24 25 25 25 25 25 25 25 25 25 25 26 26 26 26 26 26 26 26 26 26 26 26 26 26 26 25 25 25 25 25 25 25 25
26 26 25 26 27 26 26 26 26 26 26 26 28 28 27 26 26 26 25 25 25 25 25 25 25 25 24 25 24 24 25 25 25 25 25 25 25 25 25 26 26 26 26 26 26 26 26 26 26 26 27 27 26 26 26 26 26 26 25 25 25 25 25
24 25 25 25 25 26 26 25 26 26 26 26 27 27 27 27 26 26 26 25 25 25 25 25 25 25 25 25 25 25 25 25 25 25 25 25 25 25 25 26 26 26 26 26 26 26 27 27 27 27 27 27 26 26 26 26 26 26 25 25 25 25 25
23 24 24 24 24 24 23 23 24 26 26 26 25 26 27 27 26 26 26 25 25 25 25 25 25 25 25 25 25 25 25 25 25 25 25 25 25 26 26 26 26 26 26 26 27 27 27 27 27 27 27 27 27 27 26 26 26 26 26 26 26 26 26
23 23 23 23 23 22 21 21 23 24 25 25 25 25 26 27 26 26 26 26 25 25 25 25 25 25 25 25 25 25 25 25 25 25 25 25 26 26 26 26 26 27 27 27 27 27 27 27 27 27 27 26 25 25 24 24 24 25 26 26 26 26 26
23 23 23 22 22 21 20 21 22 24 25 25 25 25 26 26 26 26 26 26 26 25 25 25 25 25 25 25 25 25 25 25 25 25 26 26 26 26 26 26 27 27 27 27 27 27 27 27 26 25 24 23 23 23 23 23 22 22 23 25 25 26 26
21 23 24 23 22 21 21 21 21 22 24 25 26 26 25 26 26 26 26 26 26 26 25 25 25 25 25 25 25 25 25 25 25 26 26 26 26 26 26 27 27 27 27 27 27 27 27 26 24 23 23 23 24 24 25 25 24 24 24 24 24 25 25
21 22 23 24 23 22 21 21 20 21 22 23 26 26 25 25 25 26 26 26 26 26 26 26 25 25 25 26 25 25 26 26 26 26 26 26 26 26 26 27 27 27 27 27 27 27 27 25 25 25 24 25 25 25 25 25 25 25 24 24 25 24 25
21 21 21 22 22 21 21 21 21 21 20 21 23 25 25 25 25 25 25 25 25 26 26 26 26 26 26 26 26 26 26 26 26 26 26 26 27 26 27 27 27 27 27 27 27 27 27 26 26 25 25 25 25 25 25 25 24 24 24 25 25 24 24
21 21 20 21 21 21 21 21 21 21 21 21 21 22 24 25 25 25 25 25 25 25 25 25 26 26 26 26 26 26 26 26 26 27 27 27 27 27 27 27 27 27 27 28 27 27 27 27 26 26 25 25 25 25 25 24 24 24 24 25 25 25 25
20 20 20 21 21 21 20 21 21 20 20 21 21 21 22 23 25 25 25 25 25 25 25 25 25 25 26 26 26 26 27 27 27 27 27 27 27 27 27 27 27 27 28 28 27 27 27 27 26 26 26 26 25 25 25 25 24 24 24 24 25 25 25
20 20 20 20 21 21 20 20 20 20 20 20 21 22 21 22 24 25 25 25 25 25 24 24 24 24 24 25 25 26 26 26 27 27 27 27 27 27 28 27 27 28 28 27 27 27 27 27 26 26 26 26 25 25 25 25 24 24 24 24 24 25 25
20 20 20 20 20 21 21 20 20 20 20 20 21 23 23 22 23 24 24 25 25 25 24 24 24 24 24 24 25 25 25 26 26 27 27 27 27 27 28 28 27 27 28 27 27 27 27 26 26 26 26 26 25 25 25 25 25 24 24 24 24 24 24
20 20 20 20 20 20 20 20 20 20 20 20 21 22 23 23 23 24 24 24 24 25 24 24 24 24 24 24 25 25 25 25 26 27 27 27 27 27 28 27 27 27 27 27 27 26 26 26 26 26 26 25 25 25 25 24 24 24 24 24 24 24 24
20 20 20 19 20 20 19 19 19 20 20 20 21 21 22 23 23 24 24 24 24 25 24 24 24 24 24 24 25 25 26 25 26 26 27 27 27 27 27 27 27 27 27 27 26 26 26 26 25 25 25 25 25 25 24 24 24 24 24 24 24 24 24
19 19 19 19 19 19 19 19 19 19 19 20 20 20 20 21 22 23 23 24 24 25 24 23 24 24 24 25 25 26 26 26 26 26 26 26 26 26 26 26 26 26 26 26 26 26 26 25 25 25 25 25 25 24 23 23 23 23 23 23 23 23 23
19 19 19 19 19 18 19 19 19 19 19 19 19 20 20 20 21 21 21 22 24 24 23 23 23 24 24 25 26 25 25 26 26 26 25 25 25 25 25 25 25 25 25 25 25 24 24 23 23 24 24 23 23 22 22 21 22 22 22 22 22 23 23
19 18 18 18 18 18 18 18 18 19 19 19 20 20 20 20 21 21 20 20 21 22 22 22 22 23 24 25 25 25 25 25 25 24 24 24 23 24 24 23 23 23 23 23 23 22 21 21 21 21 21 21 20 20 20 20 20 20 21 21 22 22 22
18 18 18 18 18 18 18 18 19 19 19 19 19 20 20 20 20 21 20 19 20 20 20 21 21 22 23 24 24 24 24 24 23 23 22 22 22 22 22 22 22 22 21 20 20 20 20 20 19 19 19 19 19 19 19 19 19 19 20 20 21 21 21
18 18 18 18 18 17 17 18 18 18 18 18 18 18 19 19 20 20 20 20 20 20 20 20 20 21 21 22 22 22 22 22 22 22 22 22 21 22 22 21 20 20 20 19 19 19 19 18 18 18 17 17 17 17 17 17 18 18 19 19 20 20 20
18 18 18 17 17 17 17 17 17 17 17 17 17 18 18 19 19 20 20 20 20 20 19 20 20 19 19 20 21 21 21 21 21 21 21 21 21 20 20 20 19 19 20 19 18 18 18 17 16 16 16 16 16 16 16 16 16 17 18 18 19 19 18
18 17 17 17 17 17 16 16 16 16 16 16 17 18 18 18 19 19 19 19 19 19 19 19 19 19 19 19 20 20 20 20 20 20 20 20 20 20 19 19 19 19 19 18 18 17 17 16 16 16 15 15 16 16 15 15 15 16 16 17 17 17 17
18 17 17 17 17 16 16 16 16 16 16 17 17 18 19 18 18 19 19 19 19 19 19 19 19 18 19 19 19 19 19 19 19 20 20 20 19 19 18 18 19 18 18 18 17 17 17 16 16 16 14 14 15 16 15 15 15 15 15 15 16 16 17
17 17 17 16 16 16 16 16 16 16 16 16 17 18 18 18 18 18 18 18 18 19 18 18 18 18 18 18 18 19 19 19 19 19 19 19 18 18 17 17 18 18 18 17 17 16 16 15 15 15 14 13 14 15 14 14 14 14 14 14 15 16 17
17 17 16 16 16 16 16 16 16 16 16 16 17 17 17 17 18 18 18 18 18 18 18 18 18 18 18 18 18 18 17 18 18 18 18 18 18 18 18 17 17 17 17 17 16 16 16 15 15 15 14 14 14 14 14 14 14 14 14 14 15 16 16
17 16 16 16 16 16 16 16 16 15 15 16 16 16 16 16 16 17 17 17 18 18 18 17 17 17 17 17 17 17 17 17 17 17 17 18 18 18 18 17 17 17 17 17 17 16 16 16 15 15 15 15 14 14 14 15 15 14 14 15 16 16 16
16 16 16 16 16 16 16 16 15 15 15 15 15 16 16 15 15 16 16 17 17 17 17 17 17 17 16 16 16 17 17 17 17 17 17 17 17 17 17 17 17 17 17 17 17 16 16 16 15 15 15 15 15 15 15 15 16 15 16 16 16 16 17
15 16 16 16 16 16 16 15 15 15 15 15 15 16 16 16 15 15 16 16 17 17 17 16 16 16 16 16 16 16 16 17 17 17 17 17 17 17 17 17 17 17 17 17 16 16 16 16 15 16 16 16 16 16 16 16 16 16 16 16 17 17 17
15 15 16 16 16 16 15 15 14 14 14 14 15 16 16 16 15 15 16 16 16 16 16 16 16 16 16 16 16 16 17 17 17 17 17 17 17 17 17 17 18 17 17 17 17 17 17 16 16 17 17 17 16 16 16 16 16 16 16 17 17 17 18
15 16 16 16 16 16 15 15 15 15 15 14 15 16 16 16 15 16 16 16 16 17 16 16 16 16 16 16 17 17 17 17 18 18 18 17 17 17 17 18 18 18 18 17 18 18 18 17 17 17 17 17 17 16 16 16 16 16 17 17 18 18 18
16 16 16 16 16 16 16 15 15 15 15 15 15 16 16 15 16 16 17 17 17 17 16 16 16 16 16 16 16 16 17 17 17 18 18 18 18 18 17 18 18 18 18 18 18 18 18 18 18 18 17 17 17 16 16 16 16 16 17 18 18 18 18
16 16 16 17 17 17 16 16 16 15 15 15 16 16 16 16 16 17 17 17 17 17 17 17 17 16 16 16 16 17 17 17 17 18 18 18 18 18 18 18 18 18 18 18 18 18 18 18 17 17 17 17 16 16 16 16 17 17 18 18 18 18 18
17 17 17 17 17 17 17 17 17 16 16 16 16 16 16 16 17 17 17 17 17 18 17 17 17 17 17 17 17 18 18 18 18 19 18 18 19 19 18 18 17 17 17 17 18 18 18 17 17 17 17 17 17 17 17 17 17 18 18 18 18 18 18

ECMWFFLT1_925_temp_135.txt.gz
Temp
25 26 26 26 26 26 26 26 26 26 26 25 26 26 25 25 25 25 24 24 25 25 25 25 25 25 25 25 25 25 25 25 25 25 25 25 26 25 25 25 25 25 25 25 25 25 25 25 25 25 25 25 25 25 25 25 25 25 25 25 25 25 25
25 25 26 26 26 26 26 26 26 26 26 26 26 26 25 25 25 25 25 25 25 25 25 25 25 25 25 25 25 25 25 25 25 25 25 25 26 26 26 26 26 26 25 25 25 25 25 25 25 25 25 25 25 25 25 25 25 25 25 25 25 25 25
25 25 26 26 26 26 26 26 26 26 26 26 26 26 25 25 25 25 25 25 25 25 25 25 25 25 25 25 25 25 25 25 25 25 25 26 26 26 26 26 26 26 25 25 25 25 25 25 25 25 25 25 25 25 25 25 25 25 25 25 25 25 25
25 25 26 26 26 26 26 25 26 26 26 26 26 26 26 26 25 25 25 25 25 24 25 25 25 25 25 25 25 25 25 25 25 25 25 26 26 26 26 26 26 26 25 25 25 25 25 25 25 25 25 25 25 25 25 25 25 25 25 25 25 25 25
25 25 26 26 26 26 26 25 25 26 26 26 26 26 26 26 25 25 25 25 25 25 25 25 25 25 25 25 25 25 25 25 25 25 25 25 25 26 26 26 25 25 25 25 25 25 25 25 25 25 25 25 25 25 25 25 25 25 25 25 25 25 24
24 24 25 25 25 25 25 25 26 26 26 26 26 26 26 26 25 25 25 25 25 25 25 25 25 25 25 25 25 25 25 25 25 25 25 25 25 25 26 25 25 25 25 25 25 25 25 25 25 25 25 26 26 26 26 26 25 25 25 24 24 25 25
24 24 24 24 24 23 23 23 24 25 26 26 26 26 26 26 25 25 25 25 25 25 24 24 24 24 24 24 25 25 25 25 25 25 25 25 25 25 25 25 25 25 25 25 25 25 25 25 25 25 25 25 25 25 25 25 25 24 24 23 23 24 24
23 23 23 23 22 22 21 21 22 22 23 24 26 26 26 26 25 25 25 25 25 25 24 24 24 24 24 24 24 24 25 25 25 25 25 25 25 25 25 25 25 25 25 25 25 25 26 25 25 25 24 24 24 24 24 24 24 24 24 24 24 23 24
22 22 23 22 22 22 22 21 22 23 22 22 24 25 26 25 25 25 25 25 25 24 24 24 24 24 24 24 24 24 24 24 25 25 25 25 25 25 25 25 25 25 25 25 25 25 26 25 25 25 24 25 25 25 25 25 25 25 25 24 24 24 24
21 21 22 22 23 22 21 21 22 23 23 22 23 24 25 25 25 25 25 25 25 24 25 25 25 24 24 24 24 24 24 24 24 24 24 25 25 25 25 25 25 25 25 25 25 25 25 25 25 25 25 25 25 25 25 25 25 25 24 24 24 24 24
21 20 21 22 22 22 22 22 22 21 22 23 23 23 23 23 24 25 25 25 25 25 25 25 24 24 24 24 24 24 24 24 24 24 24 24 25 25 25 25 25 25 25 25 26 25 25 25 26 26 25 25 25 25 25 25 25 24 24 24 24 24 25
20 20 20 21 21 21 21 22 22 21 21 22 22 23 22 22 22 24 24 25 25 25 25 25 24 24 24 24 24 24 24 24 24 24 24 24 24 25 25 25 25 25 25 25 26 26 25 26 26 26 26 26 26 25 25 25 25 24 24 24 24 24 24
20 20 20 20 20 20 21 21 21 21 21 21 21 22 23 23 23 23 24 24 25 25 25 24 24 24 24 24 24 24 24 24 24 24 24 24 24 25 25 25 25 25 25 25 26 26 25 26 26 26 26 26 26 26 26 25 25 24 24 24 24 24 24
20 20 20 20 20 20 21 21 21 21 20 21 21 22 22 23 23 23 23 23 24 25 24 24 24 24 24 24 24 24 24 24 24 24 24 24 24 25 25 25 25 25 25 25 26 26 26 26 26 26 26 26 26 26 26 25 25 25 25 25 25 24 24
20 20 20 20 20 20 20 20 21 20 20 21 21 21 22 22 23 23 23 23 23 24 24 24 24 24 24 24 24 24 24 24 24 24 24 24 24 25 25 25 25 25 25 26 26 26 26 26 26 26 26 26 26 26 26 25 25 25 25 25 25 25 24
20 20 20 20 20 20 20 20 20 20 20 20 20 21 22 22 22 23 24 24 23 23 24 24 24 24 24 24 24 24 24 24 24 24 24 25 25 25 25 26 26 26 26 26 26 26 26 26 26 26 26 26 26 26 26 25 25 25 25 25 25 25 25
20 20 20 20 20 20 20 20 20 19 19 20 20 21 21 21 22 22 23 24 24 24 24 24 24 24 24 24 24 24 24 24 24 25 25 25 25 25 26 26 26 26 26 26 26 26 26 26 26 26 26 26 26 26 26 26 26 25 25 25 25 25 25
20 20 20 20 20 20 20 20 20 19 19 20 20 21 21 21 21 21 22 23 23 24 24 24 24 24 24 24 24 24 24 24 24 25 25 25 25 26 26 26 26 26 26 26 26 26 26 26 26 26 26 26 26 26 26 26 25 25 25 25 25 24 24
20 20 20 20 19 20 20 19 19 19 19 19 20 20 21 21 21 21 22 22 23 23 23 23 24 24 24 24 24 24 24 24 25 25 25 25 25 26 26 26 26 26 26 26 26 26 26 26 26 26 26 26 26 25 25 25 24 24 24 24 24 24 24
20 20 20 19 19 19 19 18 18 19 19 19 19 20 21 21 21 21 21 22 22 22 22 23 23 23 24 24 24 24 24 25 25 25 25 25 25 26 26 26 26 26 26 26 26 26 26 25 25 25 25 25 24 24 24 23 23 24 24 23 23 23 23
19 19 20 19 19 19 18 18 18 19 19 19 19 20 20 20 21 21 21 21 21 21 22 22 22 22 23 24 24 24 24 25 25 25 25 25 25 26 26 26 26 26 25 25 25 24 24 23 23 23 22 22 22 22 22 22 22 22 22 22 22 23 23
19 19 19 18 18 18 18 18 18 18 19 19 19 19 20 20 20 20 21 21 21 21 21 21 22 22 22 22 24 24 24 25 25 25 25 25 25 26 26 25 24 24 23 23 23 22 22 22 21 21 21 21 21 21 21 20 21 21 21 22 22 22 23
18 18 18 18 18 18 18 18 18 19 19 19 18 19 19 20 20 20 20 20 21 21 21 20 21 22 21 21 22 24 24 24 24 25 25 25 25 25 24 23 23 22 22 22 22 21 22 21 20 20 20 20 19 19 19 19 19 20 21 21 21 22 22
18 18 17 17 17 18 18 18 18 18 18 17 18 18 18 19 19 19 19 20 20 20 20 20 20 21 21 21 22 22 22 21 22 23 23 24 24 23 22 22 22 22 22 22 22 21 21 20 19 19 19 18 18 18 18 18 18 19 20 21 21 21 21
18 17 17 17 17 17 18 18 18 17 17 16 17 17 18 18 18 18 18 19 20 20 20 20 20 21 21 21 22 22 22 21 21 21 21 21 21 21 21 20 21 22 22 22 21 20 19 18 18 17 17 17 17 17 18 18 18 18 19 20 20 20 19
17 17 17 17 17 18 17 17 16 16 16 16 16 17 17 17 17 17 17 18 19 19 20 20 21 21 21 21 20 21 21 21 21 21 20 20 20 20 19 19 20 21 21 20 19 18 18 18 18 17 16 16 17 17 17 17 17 16 17 18 18 18 18
17 17 17 17 17 17 16 16 16 16 16 16 16 16 17 17 17 17 17 17 18 19 20 20 20 20 20 20 20 19 19 20 20 20 20 19 19 19 19 19 20 20 19 18 18 17 17 17 17 16 15 16 16 17 16 16 16 16 16 16 17 18 17
17 17 17 16 16 16 16 16 16 16 16 16 16 16 17 17 18 18 17 17 18 19 20 20 20 20 20 20 19 19 19 19 20 20 19 19 20 19 19 18 19 18 18 18 17 16 16 16 16 15 15 15 15 15 15 15 15 15 14 15 16 17 17
17 16 16 16 16 16 15 15 15 15 15 15 16 17 17 17 18 18 18 18 19 19 19 19 19 19 19 19 19 19 19 19 19 19 19 19 20 20 18 17 18 17 17 17 16 16 15 15 15 15 15 14 14 14 14 14 14 14 14 14 14 14 15
16 16 16 16 16 16 15 15 15 15 15 15 16 17 17 17 18 18 18 18 19 19 19 19 19 19 18 18 18 19 19 18 18 18 18 18 19 19 17 17 17 16 16 16 16 15 15 14 15 15 15 14 14 14 14 14 15 15 14 14 14 14 14
16 16 16 16 16 15 15 15 15 15 15 15 15 16 16 17 17 17 17 18 18 18 18 18 18 18 17 17 17 17 17 17 17 17 17 17 17 17 16 16 16 15 15 15 15 15 14 14 15 15 15 14 14 14 15 15 16 15 15 15 15 15 15
15 15 16 16 15 15 15 15 15 15 15 15 15 15 15 16 16 17 17 17 17 17 17 17 17 17 17 16 17 16 16 16 16 16 16 16 16 16 16 15 15 15 15 15 15 15 15 15 15 15 15 15 14 14 15 15 15 15 15 16 16 16 16
14 15 15 15 15 15 15 15 15 14 14 14 14 14 15 15 15 16 16 16 17 17 17 16 16 16 16 16 16 16 16 16 15 15 16 16 15 15 15 15 15 15 15 15 15 15 15 15 15 15 15 15 14 15 15 15 15 15 16 16 16 17 17
15 15 15 15 15 15 15 15 14 14 14 14 14 14 15 15 15 15 15 16 16 16 16 15 15 15 15 15 15 15 15 15 15 15 15 15 16 15 15 15 16 16 15 16 16 16 16 16 16 16 15 15 15 15 16 16 16 16 16 17 17 17 17
15 15 15 15 15 15 15 15 14 14 14 14 14 15 15 15 15 15 15 15 15 16 16 15 15 15 14 14 15 15 15 15 15 15 15 15 15 16 16 16 16 16 16 16 17 17 17 17 16 16 16 16 16 17 17 17 17 17 17 17 18 18 18
15 15 15 15 15 15 15 15 15 15 15 14 15 15 15 15 15 15 15 15 15 16 16 15 15 15 14 15 15 15 15 15 15 15 15 15 15 15 15 15 16 16 16 16 17 18 18 18 17 17 17 17 17 17 17 17 17 17 18 18 18 18 18
16 16 16 16 16 16 16 15 15 15 15 15 15 15 15 15 15 15 15 16 16 16 16 16 15 15 14 15 15 15 15 15 15 15 15 15 15 15 15 15 16 17 17 17 17 17 17 17 17 17 17 17 16 16 16 16 17 17 18 18 18 18 19
16 16 16 16 16 16 16 16 16 15 15 15 15 15 16 16 16 15 15 15 16 17 17 16 16 15 15 15 15 15 15 15 15 15 15 16 16 16 16 16 15 16 16 17 17 17 17 17 16 16 16 16 16 16 16 17 17 17 18 18 18 18 18

ECMWFFLT1_925_temp_141.txt.gz
Temp
26 26 27 27 27 26 26 27 27 27 27 26 26 26 26 25 25 24 24 24 24 24 25 25 25 25 25 25 25 25 25 25 25 24 24 25 25 24 24 24 24 24 25 25 24 24 24 24 24 24 24 24 24 24 24 24 24 24 24 24 24 24 24
26 26 26 27 27 27 26 26 27 27 27 26 26 26 26 25 25 24 24 24 24 25 25 25 25 25 25 25 25 25 25 25 25 25 25 25 25 25 25 25 25 25 25 25 25 25 25 25 24 24 24 24 24 24 24 24 24 24 24 24 24 24 24
25 26 26 26 26 27 27 26 26 27 27 26 26 26 25 25 25 24 24 24 24 24 24 25 25 25 25 24 24 25 25 24 25 25 25 25 25 25 25 25 25 25 25 25 25 25 25 25 25 25 24 24 24 24 25 24 24 24 24 24 24 24 24
25 25 25 25 26 26 27 27 26 26 26 25 25 25 25 25 24 24 24 24 24 24 24 24 25 25 24 24 24 24 24 24 24 25 24 25 25 25 25 25 25 25 25 25 25 25 25 25 25 25 25 25 24 25 25 24 24 24 24 24 24 24 24
25 25 25 25 25 26 26 27 26 25 24 24 24 24 25 25 25 24 24 24 24 24 25 25 24 24 24 24 24 24 24 24 24 25 25 25 25 25 25 25 25 25 25 25 25 25 25 25 25 25 25 25 24 24 24 24 24 24 25 25 24 24 24
24 24 24 25 25 25 26 26 26 24 24 24 24 24 25 25 25 25 25 24 24 24 24 25 25 24 24 24 24 24 24 24 24 25 25 25 25 25 25 25 25 25 25 25 25 25 25 25 25 25 24 25 24 24 24 24 24 25 25 25 25 25 25
24 24 23 24 24 25 25 26 25 24 23 24 24 24 25 25 25 26 25 24 24 24 24 25 25 24 24 24 24 24 24 24 24 25 25 25 24 24 24 24 25 25 25 25 25 25 25 25 25 25 24 24 24 24 24 24 25 25 25 25 25 25 25
23 23 23 23 23 23 24 25 24 24 23 23 24 24 24 25 25 26 25 25 24 24 24 25 25 24 24 24 24 24 25 24 24 24 24 24 24 24 24 24 24 25 25 25 25 25 25 25 25 24 24 24 24 24 24 25 25 25 25 25 25 25 24
22 22 23 22 23 23 23 24 24 23 23 24 24 24 24 25 25 25 25 24 24 24 24 24 24 24 24 24 24 25 25 24 24 24 24 24 24 25 25 25 25 24 25 25 25 25 25 25 24 24 25 25 24 25 25 25 25 25 25 25 25 25 24
22 22 22 22 22 23 23 23 23 23 23 23 23 24 24 24 25 25 25 24 24 24 24 24 24 24 24 24 24 24 24 24 24 24 24 24 25 25 25 25 25 25 25 25 25 25 25 25 24 25 25 25 25 25 25 25 25 25 25 25 25 25 25
22 22 22 23 22 22 22 23 23 23 23 23 23 23 23 23 24 24 24 24 24 24 24 24 24 24 24 24 24 24 24 24 24 24 24 24 25 25 25 25 25 25 25 25 25 25 25 24 24 25 25 25 25 25 25 25 25 24 25 25 25 25 25
21 21 22 22 22 22 22 22 23 23 22 22 22 22 22 22 23 23 24 24 24 24 24 24 24 24 24 24 24 24 24 24 24 24 24 24 24 25 25 25 25 25 25 25 25 25 25 24 24 25 25 25 25 25 25 25 25 25 25 24 24 25 24
21 21 21 21 22 22 22 22 22 22 22 22 22 22 22 22 22 22 23 23 24 24 24 24 24 24 24 23 24 24 24 24 24 24 24 24 24 24 25 25 25 25 25 25 25 25 25 25 25 25 25 25 25 25 25 25 25 24 23 23 23 23 23
21 21 21 21 21 21 22 22 22 22 22 22 22 22 22 22 22 22 22 22 23 23 24 24 24 23 23 23 23 23 24 24 24 24 24 24 24 24 24 24 24 25 25 25 25 25 25 25 25 25 25 25 25 25 25 25 24 23 23 23 23 23 22
21 21 21 21 21 21 21 21 22 22 22 22 22 22 22 22 22 22 22 22 22 23 23 23 23 23 23 23 23 23 24 24 24 24 24 24 24 24 24 24 24 24 24 24 24 25 25 25 25 25 25 25 25 25 25 25 24 24 24 24 23 23 22
20 20 21 21 21 20 20 21 21 21 21 21 21 21 22 22 21 21 21 21 22 22 23 23 23 23 23 23 23 23 24 24 24 24 23 23 23 24 24 24 24 24 24 24 24 24 24 24 24 25 25 25 25 25 25 25 25 25 24 24 24 24 23
20 21 21 21 21 20 20 20 21 20 20 20 20 20 21 21 21 21 21 21 21 22 22 22 23 23 23 23 23 23 24 23 23 23 23 23 23 23 23 23 23 23 23 24 24 24 24 24 24 24 25 24 25 25 25 24 24 24 24 24 24 23 22
20 21 21 21 21 21 20 20 20 20 20 20 20 20 20 20 20 21 21 21 21 21 21 22 22 23 23 23 23 23 23 23 23 23 23 23 23 23 23 23 23 23 23 23 24 23 24 24 24 24 24 24 24 24 24 23 24 24 23 23 22 22 22
20 21 21 21 20 20 20 20 20 20 20 20 20 20 20 19 20 20 20 21 21 21 21 21 22 22 22 23 23 23 23 23 23 23 23 23 23 23 23 23 23 23 23 23 23 23 23 24 24 24 24 24 24 24 23 23 23 23 22 23 24 23 23
21 21 21 21 20 20 20 21 20 20 20 19 19 19 19 19 19 19 19 19 20 20 21 21 21 21 22 22 23 23 23 23 23 23 23 23 23 23 23 23 23 23 23 23 23 23 23 23 23 23 24 23 23 23 23 23 23 22 21 22 24 24 23
21 21 21 21 21 21 21 21 20 20 20 19 18 18 18 18 18 18 18 18 19 19 20 20 21 21 21 22 22 23 23 23 23 23 23 23 23 23 23 23 23 23 23 23 23 23 23 23 23 23 23 23 23 23 23 22 22 22 21 21 22 22 22
20 20 20 21 21 21 20 20 20 19 19 18 18 18 17 17 17 17 17 17 18 18 19 20 20 21 21 21 22 22 22 23 23 23 23 23 22 22 22 22 22 22 23 23 23 23 23 23 23 23 23 23 22 22 22 22 22 22 21 21 21 21 21
20 20 20 21 20 20 20 19 19 18 17 17 17 17 17 17 17 17 17 17 17 18 18 19 20 20 21 21 21 21 22 22 22 22 23 22 22 22 22 22 22 23 23 23 22 22 22 22 22 22 22 22 22 22 21 21 21 21 21 21 21 21 21
20 20 20 20 20 20 19 19 18 17 17 17 17 17 17 17 17 17 17 17 17 17 18 18 19 20 20 21 21 21 21 22 22 22 22 22 22 22 22 22 23 23 23 23 22 22 22 22 21 21 21 21 21 21 20 20 20 21 21 21 21 21 20
21 20 20 20 20 19 19 18 17 17 17 17 17 17 17 17 17 17 17 17 17 17 18 18 19 19 20 20 21 21 21 21 22 22 22 22 22 22 22 22 22 22 22 22 22 21 21 20 20 20 20 20 20 19 20 20 20 20 20 20 20 20 19
21 20 20 20 19 18 18 17 17 18 17 17 17 17 16 16 16 16 17 17 18 18 18 18 18 18 19 20 20 20 20 21 21 21 22 22 22 22 22 22 22 21 21 21 21 21 20 20 20 20 19 19 18 18 19 19 19 19 20 20 20 20 19
20 20 20 19 18 18 17 17 17 17 17 16 16 16 16 16 16 16 16 17 17 18 19 18 18 18 18 19 19 20 20 20 21 21 21 21 21 21 21 21 21 21 21 20 20 20 20 19 18 18 17 17 18 18 18 19 19 19 19 19 19 19 19
20 20 20 18 18 17 17 17 17 17 16 16 16 16 16 15 16 16 16 17 17 18 18 18 18 18 18 18 19 19 20 20 20 20 21 21 21 20 20 20 20 20 20 20 20 20 19 17 16 16 15 16 16 17 17 17 18 18 18 18 18 18 18
20 19 19 18 18 17 17 17 17 16 16 16 16 16 15 15 15 16 16 16 17 17 18 18 18 19 18 18 18 19 20 20 20 20 20 20 20 20 19 19 19 19 19 19 19 18 16 15 15 14 14 14 14 15 16 16 17 17 17 18 17 17 17
19 18 18 18 17 17 16 16 16 16 15 16 15 15 15 15 15 15 16 16 16 16 17 18 19 18 18 18 18 19 19 20 20 20 20 20 20 19 19 18 18 18 18 17 16 16 15 14 14 14 14 14 14 14 15 15 16 17 17 17 17 17 17
18 18 17 17 17 16 16 16 16 15 15 15 15 15 15 14 15 15 15 15 16 16 17 18 19 19 18 18 19 19 19 20 19 20 20 20 19 19 18 18 18 17 16 16 15 15 14 14 14 13 13 13 13 13 14 14 15 15 16 16 16 16 16
18 17 17 17 16 16 16 16 15 15 15 15 15 15 15 14 14 14 15 15 15 16 16 17 18 18 18 18 19 19 19 19 19 19 19 19 19 19 18 17 17 16 15 15 14 14 13 13 13 13 13 12 13 13 13 13 14 14 14 15 15 15 15
17 17 16 16 16 16 16 16 15 15 15 15 15 15 15 14 14 14 15 15 15 15 16 16 16 16 16 17 17 17 18 18 18 17 17 17 17 17 16 16 16 15 14 14 14 13 13 12 12 12 12 12 12 12 13 13 14 14 14 15 15 15 15
17 16 16 16 15 15 15 15 15 15 15 15 15 15 15 14 15 15 15 15 15 15 15 15 15 15 15 15 15 15 15 15 15 15 14 14 14 14 14 14 14 13 13 13 13 13 12 12 12 12 12 12 12 13 13 13 13 14 14 15 15 15 15
16 16 16 16 15 15 15 15 15 15 15 15 15 15 15 15 15 15 15 15 15 15 15 14 14 14 14 14 14 14 14 13 13 13 13 13 13 13 12 12 12 12 12 12 12 13 13 13 13 13 13 13 13 14 14 14 14 15 15 15 16 16 16
16 16 16 16 15 15 15 15 15 15 15 15 15 15 15 15 15 14 14 14 14 14 14 14 14 14 14 14 14 13 13 13 12 12 12 13 13 13 12 12 11 12 12 12 12 13 14 14 14 14 15 15 15 15 16 16 16 16 16 16 16 17 17
16 17 16 16 16 16 15 15 15 15 15 15 16 16 16 15 15 14 14 14 14 14 14 14 14 14 14 14 14 13 13 12 12 12 12 11 12 12 12 11 12 12 13 13 13 14 14 14 15 15 16 16 16 16 16 16 16 16 16 16 16 16 17
16 16 16 16 16 16 16 16 15 15 15 15 15 16 16 16 15 15 14 14 14 14 14 14 14 14 14 14 14 13 13 12 12 12 11 12 12 11 11 11 11 12 12 13 14 14 14 15 15 16 16 17 17 17 17 17 16 16 16 16 16 16 16

ECMWFFLT1_925_temp_144.txt.gz
Temp
30 31 31 30 30 30 30 31 30 30 28 28 27 26 27 29 28 28 28 27 26 26 25 25 25 25 25 25 25 25 25 26 26 26 26 26 26 26 26 26 26 26 26 27 27 27 26 26 26 26 26 25 25 25 25 24 24 25 25 25 25 25 25
30 30 30 30 30 30 30 31 30 30 30 29 28 27 27 28 28 28 28 27 27 26 26 25 25 25 25 25 25 25 25 26 26 26 26 26 26 26 26 26 26 26 26 26 27 26 26 26 26 26 26 26 26 25 25 25 25 25 25 25 25 25 25
29 30 30 29 30 29 30 30 30 30 30 29 29 28 28 28 28 27 27 27 27 27 26 26 25 25 26 26 26 26 25 26 26 26 26 26 26 26 26 26 26 26 26 26 26 26 26 26 26 26 26 26 26 26 25 25 25 25 25 25 25 25 25
29 29 29 29 29 29 29 30 30 30 30 29 29 28 28 28 28 27 27 27 27 27 27 27 26 26 26 26 26 26 26 26 26 26 27 27 27 27 27 27 26 26 27 26 26 26 26 26 26 26 25 25 26 26 25 25 25 25 25 25 25 26 26
28 28 28 28 28 28 29 29 29 29 29 29 28 28 28 28 28 27 27 27 28 28 27 27 27 27 27 26 26 26 26 26 26 26 27 27 27 27 27 27 27 27 27 27 27 26 26 26 26 26 26 25 26 26 26 26 26 26 25 25 26 26 26
28 28 28 27 28 28 28 29 29 29 28 28 28 28 28 28 28 28 27 27 27 28 28 28 28 28 27 27 27 27 27 27 26 26 27 27 27 27 28 27 27 27 27 27 27 27 26 26 26 27 26 26 26 27 27 26 26 26 26 26 26 26 26
28 28 27 27 27 28 28 29 29 28 27 27 27 27 28 28 28 28 27 26 27 28 28 28 28 28 28 27 27 27 27 27 27 26 27 27 27 27 28 28 27 27 28 27 27 27 27 27 27 26 26 27 27 27 27 27 26 26 26 26 25 25 26
27 27 27 27 27 27 28 28 28 28 27 27 27 28 28 28 28 28 26 26 27 28 28 28 29 28 27 27 27 27 27 27 27 27 27 27 27 27 28 28 28 27 27 28 27 27 27 27 27 27 26 27 27 27 27 26 26 26 26 26 25 26 26
27 27 27 26 26 26 27 27 27 27 27 27 27 28 28 28 28 28 27 27 27 28 28 28 28 28 27 27 27 27 27 27 27 27 27 27 28 28 28 28 28 28 27 28 28 28 27 27 27 27 26 26 26 26 26 26 25 26 26 25 25 25 25
26 26 26 26 26 26 26 26 27 27 26 27 27 27 27 27 28 28 27 27 27 27 27 27 27 27 27 27 27 27 27 27 27 28 27 28 28 28 29 29 29 28 28 28 28 28 28 27 27 27 26 26 26 26 25 25 25 25 25 25 25 25 24
26 26 26 26 26 26 26 26 26 26 26 26 26 26 27 27 27 27 27 27 27 26 26 27 27 27 26 26 26 27 27 27 27 28 28 28 28 28 29 29 29 29 28 28 28 28 28 28 27 27 26 25 26 25 25 25 25 25 25 25 25 24 24
26 26 26 26 25 25 26 26 26 26 25 25 25 25 26 26 26 26 26 26 26 26 26 26 26 26 26 26 26 27 27 28 28 28 28 28 28 28 29 29 29 29 29 29 28 28 28 28 27 27 26 25 26 26 25 25 25 25 25 25 25 25 24
25 26 25 25 25 25 25 25 25 25 25 25 25 25 25 25 25 25 25 25 26 26 26 25 25 26 25 25 26 26 26 27 28 28 28 28 28 28 28 29 29 29 29 29 29 28 28 28 28 27 26 26 26 26 26 25 25 25 24 25 25 24 24
25 25 25 25 25 25 25 25 25 25 24 24 24 24 24 24 24 24 24 25 25 25 25 26 25 25 25 25 26 26 26 27 27 28 28 28 27 27 27 28 28 29 29 29 29 28 28 29 28 27 27 26 26 26 25 25 25 25 25 25 25 24 24
25 25 25 25 25 25 24 24 24 24 24 24 23 23 24 24 24 24 24 24 24 24 25 25 25 25 25 25 25 25 26 26 26 27 27 27 27 26 26 27 27 28 28 28 28 28 28 29 29 28 28 27 26 26 25 26 26 25 25 25 24 24 24
25 25 25 25 25 25 24 24 24 24 23 23 23 23 23 23 23 23 24 24 24 24 24 24 24 25 25 25 25 25 25 25 25 26 26 26 26 26 25 26 26 27 27 27 28 28 28 28 28 28 28 28 27 26 26 27 26 25 25 25 25 24 24
25 25 25 25 25 25 24 24 24 24 24 23 23 23 23 23 23 23 23 23 23 23 24 24 24 24 25 25 25 25 25 25 25 25 25 25 25 25 25 25 26 26 26 27 27 27 27 27 27 28 28 28 28 27 27 27 26 25 25 26 25 25 24
25 25 25 25 25 24 24 24 24 24 24 23 22 22 22 22 22 22 22 22 23 23 23 23 24 24 25 25 25 25 25 25 25 25 25 25 25 25 25 25 25 25 26 26 26 26 26 27 27 27 27 28 28 28 27 27 26 25 25 26 26 25 24
25 25 25 25 24 24 23 23 24 23 23 23 22 22 22 21 21 21 21 21 21 22 22 23 23 24 24 24 25 25 25 25 24 24 24 25 25 25 25 25 25 25 25 26 26 26 26 26 27 27 27 27 27 27 27 27 26 25 25 26 26 25 24
25 25 25 25 25 24 24 24 23 23 22 22 21 21 21 20 20 20 20 20 20 21 21 22 22 23 23 24 24 25 25 25 25 24 24 24 24 24 25 25 25 25 25 26 26 26 26 26 26 26 26 26 26 26 27 26 25 25 25 25 25 24 24
24 24 24 25 25 24 23 23 22 22 22 21 20 20 20 20 20 20 20 20 20 20 21 21 21 22 23 23 24 24 24 25 25 25 24 24 24 24 24 24 25 24 25 25 25 26 25 25 26 26 26 26 26 26 26 25 24 24 24 24 24 24 23
24 24 24 24 24 23 23 22 22 21 20 20 20 20 20 20 20 19 19 19 20 20 21 21 21 21 22 23 23 23 24 24 24 25 25 24 24 24 24 24 24 24 25 25 25 25 25 25 25 25 25 25 25 25 25 24 24 24 24 24 23 23 22
24 23 24 24 23 23 22 21 21 20 20 20 20 20 20 19 19 19 19 20 20 20 20 21 21 21 22 22 23 23 23 23 24 24 24 24 24 24 24 24 25 25 24 25 25 25 25 25 25 25 24 24 24 24 23 23 24 23 23 23 22 22 22
24 24 24 23 23 22 22 21 20 20 20 20 20 19 19 19 19 19 19 20 20 20 20 20 21 21 22 22 22 23 23 23 23 24 24 24 24 24 24 24 24 25 24 24 24 24 24 24 24 24 23 23 23 23 22 22 23 23 22 22 22 22 22
24 24 23 23 22 22 21 20 20 19 20 20 20 19 19 19 19 19 19 20 20 20 20 20 21 21 21 22 22 22 23 23 23 23 23 24 24 24 24 24 24 24 24 24 24 24 24 24 24 23 23 22 22 21 21 22 22 22 22 22 22 21 21
24 23 23 23 22 21 20 20 20 20 20 19 19 19 18 19 19 19 19 19 20 20 21 21 21 21 21 21 21 21 22 22 22 23 23 23 24 24 24 24 24 24 24 24 24 24 23 23 23 22 21 21 20 20 20 20 21 21 21 21 21 21 20
23 23 23 22 21 20 20 20 20 19 19 19 19 19 18 19 19 19 19 19 19 20 21 20 20 20 20 20 20 20 21 22 22 22 23 23 23 23 23 24 24 24 23 23 23 23 23 23 22 21 20 20 20 20 20 19 19 20 20 20 20 20 20
24 23 22 21 21 20 20 20 20 19 19 19 19 19 19 18 18 19 19 19 19 20 20 20 19 19 20 20 20 20 20 21 21 22 22 23 23 23 23 23 23 23 23 22 22 22 22 22 21 21 20 20 19 19 18 18 18 19 19 19 19 19 20
23 22 22 22 21 21 20 20 20 19 19 19 19 19 18 18 18 18 18 19 19 19 19 19 19 19 19 20 20 20 20 20 21 21 22 22 23 22 22 22 22 22 22 22 22 21 21 20 20 19 19 19 19 18 17 16 17 18 18 18 18 18 19
23 22 21 22 22 21 20 20 20 19 19 19 19 18 18 18 18 18 18 18 18 18 18 18 18 18 19 20 21 21 20 20 20 21 21 22 22 22 22 22 21 21 21 21 20 20 19 19 18 17 17 17 17 17 16 16 15 16 17 17 17 17 17
22 21 22 22 21 20 19 19 19 19 19 19 19 18 18 18 17 18 18 18 18 17 17 18 18 18 18 19 20 20 21 20 20 21 21 21 22 22 21 21 21 20 19 19 19 19 18 17 17 16 16 16 16 16 15 15 15 15 15 16 16 17 17
21 21 22 22 20 19 19 20 20 19 19 19 18 18 18 18 18 18 17 18 18 17 17 17 18 18 18 18 19 19 20 20 20 20 20 20 20 20 20 20 19 19 18 19 18 18 17 17 16 16 15 15 15 15 14 14 14 14 14 15 16 16 16
21 21 21 20 19 19 19 20 20 19 19 18 18 18 18 18 18 17 17 17 17 17 17 16 16 16 16 16 17 17 18 18 18 18 18 18 18 18 18 18 18 18 17 17 17 17 16 16 15 15 14 14 14 14 13 14 14 14 14 14 15 15 15
21 20 20 19 19 19 19 19 19 18 18 18 18 18 18 18 18 17 17 17 16 16 16 16 15 15 15 15 15 15 15 15 15 15 15 15 15 15 15 15 16 15 15 15 15 15 15 15 15 14 14 13 13 13 13 13 13 14 14 15 15 15 15
21 20 20 19 19 19 19 19 18 18 18 18 18 18 18 18 17 17 17 16 16 16 16 15 15 14 14 14 13 13 13 13 13 13 13 13 13 12 12 13 13 13 13 13 14 14 14 14 13 13 13 13 13 13 13 13 13 14 15 15 15 15 16
21 20 20 19 19 19 19 18 18 18 17 17 18 18 18 18 17 17 16 16 16 16 16 16 15 15 14 14 13 12 12 12 12 12 12 12 12 12 12 12 12 13 13 13 13 13 13 13 12 12 12 12 13 14 14 14 14 14 15 15 16 16 16
21 20 20 19 19 19 19 18 18 17 17 17 18 18 18 18 18 17 17 16 16 16 16 16 15 15 14 14 13 12 12 12 12 11 11 11 11 12 11 11 12 13 13 14 14 13 13 13 13 13 13 13 14 14 15 15 15 14 15 15 16 16 16
20 20 20 20 19 19 19 18 17 17 17 17 18 18 18 18 17 17 17 17 17 16 16 16 15 15 14 13 13 13 13 13 12 12 12 11 12 12 11 11 11 11 12 13 14 14 14 14 14 14 15 15 15 15 15 15 14 15 15 15 16 16 16